Койчев, Айтос, ТХ на стреха опр. защита Measurements

Back to Overview

Timestamp Temperature Humidity
5/4/2026 5:43:49 PM 16,9 C 50.0%
5/4/2026 5:36:47 PM 16,9 C 49.0%
5/4/2026 5:29:43 PM 16,9 C 50.0%
5/4/2026 5:22:41 PM 16,9 C 48.0%
5/4/2026 5:15:45 PM 16,9 C 48.0%
5/4/2026 5:08:35 PM 17,0 C 47.0%
5/4/2026 5:01:33 PM 17,0 C 47.0%
5/4/2026 4:54:29 PM 17,1 C 46.0%
5/4/2026 4:47:26 PM 17,1 C 46.0%
5/4/2026 4:40:23 PM 17,2 C 46.0%
5/4/2026 4:33:20 PM 17,1 C 47.0%
5/4/2026 4:26:19 PM 17,1 C 46.0%
5/4/2026 4:19:15 PM 17,2 C 45.0%
5/4/2026 4:12:12 PM 17,3 C 46.0%
5/4/2026 4:05:08 PM 17,2 C 45.0%
5/4/2026 3:58:06 PM 17,2 C 46.0%
5/4/2026 3:51:03 PM 17,1 C 47.0%
5/4/2026 3:44:00 PM 16,9 C 46.0%
5/4/2026 3:36:58 PM 17,0 C 45.0%
5/4/2026 3:29:54 PM 16,9 C 46.0%
5/4/2026 3:22:53 PM 16,9 C 46.0%
5/4/2026 3:15:50 PM 16,8 C 46.0%
5/4/2026 3:08:46 PM 16,7 C 46.0%
5/4/2026 3:01:44 PM 16,9 C 46.0%
5/4/2026 2:54:42 PM 16,9 C 46.0%
5/4/2026 2:47:39 PM 16,8 C 45.0%
5/4/2026 2:40:36 PM 16,7 C 47.0%
5/4/2026 2:33:33 PM 16,7 C 45.0%
5/4/2026 2:26:29 PM 16,7 C 45.0%
5/4/2026 2:19:26 PM 16,7 C 45.0%
5/4/2026 2:12:24 PM 16,7 C 45.0%
5/4/2026 2:05:20 PM 16,6 C 46.0%
5/4/2026 1:58:17 PM 16,6 C 46.0%
5/4/2026 1:51:14 PM 16,6 C 46.0%
5/4/2026 1:44:12 PM 16,4 C 45.0%
5/4/2026 1:37:09 PM 16,2 C 46.0%
5/4/2026 1:30:06 PM 16,1 C 45.0%
5/4/2026 1:23:02 PM 16,3 C 44.0%
5/4/2026 1:16:00 PM 16,6 C 45.0%
5/4/2026 1:09:04 PM 16,6 C 45.0%
5/4/2026 1:01:53 PM 16,6 C 45.0%
5/4/2026 12:54:49 PM 16,4 C 44.0%
5/4/2026 12:47:47 PM 16,3 C 44.0%
5/4/2026 12:40:44 PM 16,3 C 43.0%
5/4/2026 12:33:40 PM 16,7 C 43.0%
5/4/2026 12:26:38 PM 16,5 C 45.0%
5/4/2026 12:19:34 PM 16,4 C 43.0%
5/4/2026 12:12:31 PM 16,5 C 45.0%
5/4/2026 12:05:35 PM 16,2 C 44.0%
5/4/2026 11:58:24 AM 16,1 C 43.0%
5/4/2026 11:51:21 AM 16,0 C 45.0%
5/4/2026 11:44:25 AM 15,8 C 44.0%
5/4/2026 11:37:16 AM 15,6 C 45.0%
5/4/2026 11:30:13 AM 15,4 C 44.0%
5/4/2026 11:23:08 AM 15,3 C 45.0%
5/4/2026 11:16:05 AM 15,1 C 46.0%
5/4/2026 11:09:01 AM 14,8 C 47.0%
5/4/2026 11:01:57 AM 14,8 C 46.0%
5/4/2026 10:54:56 AM 14,7 C 48.0%
5/4/2026 10:47:52 AM 14,4 C 49.0%
5/4/2026 10:40:47 AM 14,3 C 48.0%
5/4/2026 10:33:45 AM 14,2 C 48.0%
5/4/2026 10:26:43 AM 14,1 C 50.0%
5/4/2026 10:19:40 AM 13,8 C 52.0%
5/4/2026 10:12:37 AM 13,5 C 51.0%
5/4/2026 10:05:34 AM 13,3 C 53.0%
5/4/2026 9:58:30 AM 13,0 C 53.0%
5/4/2026 9:51:28 AM 12,9 C 54.0%
5/4/2026 9:44:24 AM 12,7 C 54.0%
5/4/2026 9:37:22 AM 12,6 C 55.0%
5/4/2026 9:30:19 AM 12,3 C 55.0%
5/4/2026 9:23:16 AM 12,1 C 56.0%
5/4/2026 9:16:13 AM 11,9 C 56.0%
5/4/2026 9:09:11 AM 11,7 C 57.0%
5/4/2026 9:02:08 AM 11,4 C 59.0%
5/4/2026 8:55:12 AM 11,2 C 57.0%
5/4/2026 8:48:01 AM 11,0 C 60.0%
5/4/2026 8:40:59 AM 10,8 C 59.0%
5/4/2026 8:34:03 AM 10,7 C 59.0%
5/4/2026 8:26:52 AM 10,5 C 60.0%
5/4/2026 8:19:49 AM 10,3 C 61.0%
5/4/2026 8:12:46 AM 10,0 C 61.0%
5/4/2026 8:05:42 AM 9,9 C 62.0%
5/4/2026 7:58:37 AM 9,7 C 62.0%
5/4/2026 7:51:35 AM 9,6 C 63.0%
5/4/2026 7:44:32 AM 9,4 C 63.0%
5/4/2026 7:37:30 AM 9,2 C 64.0%
5/4/2026 7:30:26 AM 9,0 C 64.0%
5/4/2026 7:23:23 AM 8,7 C 66.0%
5/4/2026 7:16:22 AM 8,5 C 66.0%
5/4/2026 7:09:18 AM 8,2 C 66.0%
5/4/2026 7:02:14 AM 8,0 C 67.0%
5/4/2026 6:55:11 AM 7,6 C 68.0%
5/4/2026 6:48:10 AM 7,6 C 68.0%
5/4/2026 6:41:07 AM 7,6 C 68.0%
5/4/2026 6:34:04 AM 7,5 C 69.0%
5/4/2026 6:27:00 AM 7,4 C 69.0%
5/4/2026 6:19:58 AM 7,5 C 69.0%
5/4/2026 6:12:55 AM 7,4 C 69.0%
5/4/2026 6:05:52 AM 7,3 C 69.0%
5/4/2026 5:58:51 AM 7,2 C 69.0%
5/4/2026 5:51:47 AM 7,1 C 70.0%
5/4/2026 5:44:44 AM 7,1 C 70.0%
5/4/2026 5:37:41 AM 7,0 C 70.0%
5/4/2026 5:30:39 AM 7,0 C 70.0%
5/4/2026 5:23:36 AM 6,9 C 70.0%
5/4/2026 5:16:32 AM 6,8 C 71.0%
5/4/2026 5:09:29 AM 6,6 C 72.0%
5/4/2026 5:02:25 AM 6,5 C 72.0%
5/4/2026 4:55:21 AM 6,3 C 73.0%
5/4/2026 4:48:18 AM 6,2 C 73.0%
5/4/2026 4:41:14 AM 6,1 C 73.0%
5/4/2026 4:34:13 AM 6,1 C 74.0%
5/4/2026 4:27:10 AM 6,1 C 74.0%
5/4/2026 4:20:07 AM 6,0 C 74.0%
5/4/2026 4:13:03 AM 5,8 C 75.0%
5/4/2026 4:06:00 AM 5,8 C 75.0%
5/4/2026 3:58:57 AM 5,8 C 75.0%
5/4/2026 3:51:54 AM 5,9 C 74.0%
5/4/2026 3:44:53 AM 6,1 C 74.0%
5/4/2026 3:37:49 AM 6,1 C 74.0%
5/4/2026 3:30:46 AM 6,1 C 74.0%
5/4/2026 3:23:42 AM 6,2 C 74.0%
5/4/2026 3:16:39 AM 6,3 C 75.0%
5/4/2026 3:09:36 AM 6,4 C 74.0%
5/4/2026 3:02:32 AM 6,4 C 74.0%
5/4/2026 2:55:29 AM 6,6 C 74.0%
5/4/2026 2:48:26 AM 6,7 C 74.0%
5/4/2026 2:41:22 AM 6,6 C 75.0%
5/4/2026 2:34:18 AM 6,6 C 75.0%
5/4/2026 2:27:14 AM 6,6 C 75.0%
5/4/2026 2:20:11 AM 6,4 C 76.0%
5/4/2026 2:13:08 AM 6,3 C 76.0%
5/4/2026 2:06:06 AM 6,3 C 77.0%
5/4/2026 1:59:02 AM 6,1 C 77.0%
5/4/2026 1:51:59 AM 6,0 C 77.0%
5/4/2026 1:44:55 AM 5,7 C 78.0%
5/4/2026 1:37:52 AM 5,8 C 77.0%
5/4/2026 1:30:49 AM 6,2 C 76.0%
5/4/2026 1:23:46 AM 6,4 C 76.0%
5/4/2026 1:16:44 AM 6,5 C 75.0%
5/4/2026 1:09:42 AM 6,6 C 75.0%
5/4/2026 1:02:39 AM 6,7 C 75.0%
5/4/2026 12:55:37 AM 6,8 C 74.0%
5/4/2026 12:48:35 AM 6,9 C 74.0%
5/4/2026 12:41:33 AM 6,9 C 75.0%
5/4/2026 12:34:29 AM 6,8 C 75.0%
5/4/2026 12:27:26 AM 6,7 C 75.0%
5/4/2026 12:20:25 AM 6,6 C 75.0%
5/4/2026 12:13:21 AM 6,5 C 75.0%
5/4/2026 12:06:20 AM 6,5 C 76.0%